Time,TemperatureF,DewpointF,PressureIn,WindDirection,WindDirectionDegrees,WindSpeedMPH,WindSpeedGustMPH,Humidity,HourlyPrecipIn,Conditions,Clouds,dailyrainin,SoftwareType,DateUTC
2013-02-06 01:00:00,28.0,4.0,-100.00,WNW,284,8.0,15.0,35,-99.99,,,-99.99,,2013-02-06 08:00:00,
2013-02-06 01:42:00,28.0,4.0,-100.00,WNW,284,8.0,15.0,35,-99.99,,,-99.99,,2013-02-06 08:42:00,
2013-02-06 01:53:00,28.0,4.0,-100.00,WNW,284,8.0,15.0,35,-99.99,,,-99.99,,2013-02-06 08:53:00,
2013-02-06 02:00:00,27.0,9.0,-100.00,WNW,282,7.0,14.0,47,-99.99,,,-99.99,,2013-02-06 09:00:00,
2013-02-06 02:42:00,27.0,9.0,-100.00,WNW,282,7.0,14.0,47,-99.99,,,-99.99,,2013-02-06 09:42:00,
2013-02-06 02:52:00,27.0,9.0,-100.00,WNW,282,7.0,14.0,47,-99.99,,,-99.99,,2013-02-06 09:52:00,
2013-02-06 03:00:00,26.0,10.0,-100.00,WNW,297,7.0,13.0,51,-99.99,,,-99.99,,2013-02-06 10:00:00,
2013-02-06 03:42:00,26.0,10.0,-100.00,WNW,297,7.0,13.0,51,-99.99,,,-99.99,,2013-02-06 10:42:00,
2013-02-06 03:52:00,26.0,10.0,-100.00,WNW,297,7.0,13.0,51,-99.99,,,-99.99,,2013-02-06 10:52:00,
2013-02-06 04:00:00,22.0,11.0,-100.00,WNW,286,9.0,16.0,61,-99.99,,,-99.99,,2013-02-06 11:00:00,
2013-02-06 04:42:00,22.0,11.0,-100.00,WNW,286,9.0,16.0,61,-99.99,,,-99.99,,2013-02-06 11:42:00,
2013-02-06 04:53:00,22.0,11.0,-100.00,WNW,286,9.0,16.0,61,-99.99,,,-99.99,,2013-02-06 11:53:00,
2013-02-06 05:00:00,21.0,11.0,-100.00,WNW,296,7.0,13.0,64,-99.99,,,-99.99,,2013-02-06 12:00:00,
2013-02-06 05:42:00,21.0,11.0,-100.00,WNW,296,7.0,13.0,64,-99.99,,,-99.99,,2013-02-06 12:42:00,
2013-02-06 05:52:00,21.0,11.0,-100.00,WNW,296,7.0,13.0,64,-99.99,,,-99.99,,2013-02-06 12:52:00,
2013-02-06 06:00:00,21.0,9.0,-100.00,NW,308,8.0,20.0,59,-99.99,,,-99.99,,2013-02-06 13:00:00,
2013-02-06 06:32:00,21.0,9.0,-100.00,NW,308,8.0,20.0,59,-99.99,,,-99.99,,2013-02-06 13:32:00,
2013-02-06 06:42:00,21.0,9.0,-100.00,NW,308,8.0,20.0,59,-99.99,,,-99.99,,2013-02-06 13:42:00,
2013-02-06 06:52:00,21.0,9.0,-100.00,NW,308,8.0,20.0,59,-99.99,,,-99.99,,2013-02-06 13:52:00,
2013-02-06 07:00:00,19.0,11.0,-100.00,NW,316,9.0,20.0,72,-99.99,,,-99.99,,2013-02-06 14:00:00,
2013-02-06 07:32:00,19.0,11.0,-100.00,NW,316,9.0,20.0,72,-99.99,,,-99.99,,2013-02-06 14:32:00,
2013-02-06 07:42:00,19.0,11.0,-100.00,NW,316,9.0,20.0,72,-99.99,,,-99.99,,2013-02-06 14:42:00,
2013-02-06 07:52:00,19.0,11.0,-100.00,NW,316,9.0,20.0,72,-99.99,,,-99.99,,2013-02-06 14:52:00,
2013-02-06 08:00:00,16.0,14.0,-100.00,NW,306,6.0,14.0,89,-99.99,,,-99.99,,2013-02-06 15:00:00,
2013-02-06 08:32:00,16.0,14.0,-100.00,NW,306,6.0,14.0,89,-99.99,,,-99.99,,2013-02-06 15:32:00,
2013-02-06 08:42:00,16.0,14.0,-100.00,NW,306,6.0,14.0,89,-99.99,,,-99.99,,2013-02-06 15:42:00,
2013-02-06 08:52:00,16.0,14.0,-100.00,NW,306,6.0,14.0,89,-99.99,,,-99.99,,2013-02-06 15:52:00,
2013-02-06 09:00:00,17.0,11.0,-100.00,NW,306,7.0,17.0,77,-99.99,,,-99.99,,2013-02-06 16:00:00,
2013-02-06 09:32:00,17.0,11.0,-100.00,NW,306,7.0,17.0,77,-99.99,,,-99.99,,2013-02-06 16:32:00,
2013-02-06 09:42:00,17.0,11.0,-100.00,NW,306,7.0,17.0,77,-99.99,,,-99.99,,2013-02-06 16:42:00,
2013-02-06 09:52:00,17.0,11.0,-100.00,NW,306,7.0,17.0,77,-99.99,,,-99.99,,2013-02-06 16:52:00,
2013-02-06 10:00:00,18.0,7.0,-100.00,NW,310,6.0,12.0,62,-99.99,,,-99.99,,2013-02-06 17:00:00,
2013-02-06 10:42:00,18.0,7.0,-100.00,NW,310,6.0,12.0,62,-99.99,,,-99.99,,2013-02-06 17:42:00,
2013-02-06 10:52:00,18.0,7.0,-100.00,NW,310,6.0,12.0,62,-99.99,,,-99.99,,2013-02-06 17:52:00,
2013-02-06 11:00:00,21.0,6.0,-100.00,NW,307,8.0,18.0,52,-99.99,,,-99.99,,2013-02-06 18:00:00,
2013-02-06 11:42:00,21.0,6.0,-100.00,NW,307,8.0,18.0,52,-99.99,,,-99.99,,2013-02-06 18:42:00,
2013-02-06 11:52:00,21.0,6.0,-100.00,NW,307,8.0,18.0,52,-99.99,,,-99.99,,2013-02-06 18:52:00,
2013-02-06 12:00:00,21.0,7.0,-100.00,NW,313,6.0,17.0,53,-99.99,,,-99.99,,2013-02-06 19:00:00,
2013-02-06 12:42:00,21.0,7.0,-100.00,NW,313,6.0,17.0,53,-99.99,,,-99.99,,2013-02-06 19:42:00,
2013-02-06 12:52:00,21.0,7.0,-100.00,NW,313,6.0,17.0,53,-99.99,,,-99.99,,2013-02-06 19:52:00,
2013-02-06 13:00:00,20.0,8.0,-100.00,NW,312,7.0,16.0,60,-99.99,,,-99.99,,2013-02-06 20:00:00,
2013-02-06 13:42:00,20.0,8.0,-100.00,NW,312,7.0,16.0,60,-99.99,,,-99.99,,2013-02-06 20:42:00,
2013-02-06 13:52:00,20.0,8.0,-100.00,NW,312,7.0,16.0,60,-99.99,,,-99.99,,2013-02-06 20:52:00,
2013-02-06 14:00:00,19.0,9.0,-100.00,WNW,302,7.0,16.0,63,-99.99,,,-99.99,,2013-02-06 21:00:00,
2013-02-06 14:42:00,19.0,9.0,-100.00,WNW,302,7.0,16.0,63,-99.99,,,-99.99,,2013-02-06 21:42:00,
2013-02-06 14:52:00,19.0,9.0,-100.00,WNW,302,7.0,16.0,63,-99.99,,,-99.99,,2013-02-06 21:52:00,
2013-02-06 15:00:00,19.0,10.0,-100.00,NW,307,5.0,11.0,65,-99.99,,,-99.99,,2013-02-06 22:00:00,
2013-02-06 15:42:00,19.0,10.0,-100.00,NW,307,5.0,11.0,65,-99.99,,,-99.99,,2013-02-06 22:42:00,
2013-02-06 15:52:00,19.0,10.0,-100.00,NW,307,5.0,11.0,65,-99.99,,,-99.99,,2013-02-06 22:52:00,
2013-02-06 16:00:00,17.0,12.0,-100.00,WNW,302,7.0,14.0,79,-99.99,,,-99.99,,2013-02-06 23:00:00,
2013-02-06 16:42:00,17.0,12.0,-100.00,WNW,302,7.0,14.0,79,-99.99,,,-99.99,,2013-02-06 23:42:00,
2013-02-06 16:52:00,17.0,12.0,-100.00,WNW,302,7.0,14.0,79,-99.99,,,-99.99,,2013-02-06 23:52:00,
2013-02-06 17:00:00,15.0,10.0,-100.00,WNW,298,6.0,10.0,81,-99.99,,,-99.99,,2013-02-07 00:00:00,
2013-02-06 17:42:00,15.0,10.0,-100.00,WNW,298,6.0,10.0,81,-99.99,,,-99.99,,2013-02-07 00:42:00,
2013-02-06 17:52:00,15.0,10.0,-100.00,WNW,298,6.0,10.0,81,-99.99,,,-99.99,,2013-02-07 00:52:00,
2013-02-06 18:00:00,13.0,8.0,-100.00,WNW,293,7.0,10.0,80,-99.99,,,-99.99,,2013-02-07 01:00:00,
2013-02-06 18:42:00,13.0,8.0,-100.00,WNW,293,7.0,10.0,80,-99.99,,,-99.99,,2013-02-07 01:42:00,
2013-02-06 18:52:00,13.0,8.0,-100.00,WNW,293,7.0,10.0,80,-99.99,,,-99.99,,2013-02-07 01:52:00,
2013-02-06 19:00:00,13.0,6.0,-100.00,WNW,288,6.0,10.0,71,-99.99,,,-99.99,,2013-02-07 02:00:00,